Regional Weather Roundup
Issued by NWS Albany, NY

Home | Current Version | Previous Version | Graphics & Text | Print | Product List | Glossary Off
Versions: 1 2 3 4 5 6 7 8 9 10 11 12 13 14 15 16 17 18 19 20 21 22 23 24 25 26 27

000
ASUS41 KALY 171810
RWRALY

NEW YORK STATE HOURLY WEATHER ROUNDUP
NATIONAL WEATHER SERVICE ALBANY NY
100 PM EST SUN DEC 17 2017

NOTE: "FAIR" INDICATES FEW OR NO CLOUDS BELOW 12,000 FEET WITH NO
SIGNIFICANT WEATHER AND/OR NO OBSTRUCTIONS TO VISIBILITY.

NYZ032-033-038>043-046>054-057>066-NYZ062>081-082-084-171900-
EAST


CITY           SKY/WX    TMP DP  RH WIND       PRES   REMARKS
ALBANY         MOSUNNY   26  12  55 NW10      30.28F WCI  16
GLENS FALLS    SUNNY     18   9  68 CALM      30.28F
POUGHKEEPSIE   CLOUDY    28  15  58 CALM      30.26F
NEWBURGH       PTSUNNY   28  19  69 VRB6      30.25F WCI  22
MONTGOMERY     CLOUDY    31  20  63 CALM      30.23F
WHITE PLAINS   CLOUDY    31  19  61 SE3       30.23F
ISLIP          CLOUDY    33  21  61 N7        30.25F WCI  27
NEW YORK CITY  CLOUDY    36  22  56 CALM      30.26F
CENTRAL PARK   CLOUDY    37  23  56 CALM      30.28F
$$

NYZ005>009-017-018-044>046-055-056-171900-
CENTRAL


CITY           SKY/WX    TMP DP  RH WIND       PRES   REMARKS
FULTON         CLOUDY    21  12  68 NE3       30.27F
SYRACUSE       CLOUDY    20  16  84 CALM      30.26F
ROME           SUNNY     16   9  74 CALM      30.29F
ELMIRA         CLOUDY    27  18  69 E5        30.19F WCI  22
BINGHAMTON     CLOUDY    21  14  74 E3        30.16F
MONTICELLO     CLOUDY    29  20  69 CALM      30.18F
$$

NYZ026>034-041>043-087-171900-
NORTH


CITY           SKY/WX    TMP DP  RH WIND       PRES   REMARKS
WATERTOWN      CLOUDY    11   3  70 NE3       30.31F
FORT DRUM      NOT AVBL
OGDENSBURG     FAIR      14   3  62 CALM      30.33F
MASSENA        CLOUDY     9   2  73 CALM      30.35F
SARANAC LAKE   CLOUDY    12   3  67 SW8       30.15F WCI   0
PLATTSBURGH    CLOUDY    14   7  73 VRB5      30.32S WCI   6
$$

NYZ001>004-010>016-019>021-085-171900-
WEST


CITY           SKY/WX    TMP DP  RH WIND       PRES   REMARKS
NIAGARA FALLS  CLOUDY    25  12  58 E9        30.22F WCI  15
BUFFALO        CLOUDY    23  14  68 NE8       30.21F WCI  14
DUNKIRK        CLOUDY    25  20  81 NE7       30.19F WCI  17
JAMESTOWN      CLOUDY    28  26  92 SE5       30.12F FOG     WCI  23
WELLSVILLE     CLOUDY    30  23  75 CALM      30.12F HAZE
ROCHESTER      PTSUNNY   24  19  81 NE5       30.25F WCI  18
PENN YAN       CLOUDY    23  13  65 CALM      30.22F
$$

             KEY
       WCI = WIND CHILL INDEX
       VSB = VISIBILITY
       HX  = HEAT INDEX
$$




USA.gov is the U.S. government's official web portal to all federal, state and local government web resources and services.